Time,TemperatureF,DewpointF,PressureIn,WindDirection,WindDirectionDegrees,WindSpeedMPH,WindSpeedGustMPH,Humidity,HourlyPrecipIn,Conditions,Clouds,dailyrainin,SolarRadiationWatts/m^2,SoftwareType,DateUTC
2013-01-11 00:00:00,62.5,61.6,29.82,ESE,123,5.0,11.0,97,0.00,,---,0.00,0.00,VWS V14.01,2013-01-11 05:00:00,
2013-01-11 00:01:00,62.5,61.6,29.82,ESE,105,7.0,11.0,97,0.00,,---,0.00,0.00,VWS V14.01,2013-01-11 05:01:00,
2013-01-11 00:03:00,62.5,61.6,29.82,ESE,112,5.0,11.0,97,0.00,,---,0.00,0.00,VWS V14.01,2013-01-11 05:03:00,
2013-01-11 00:08:00,62.6,61.7,29.82,ESE,115,4.0,11.0,97,0.00,,---,0.00,0.00,VWS V14.01,2013-01-11 05:08:00,
2013-01-11 00:13:00,62.6,61.7,29.82,ESE,115,4.0,11.0,97,0.00,,---,0.00,0.00,VWS V14.01,2013-01-11 05:13:00,
2013-01-11 00:18:00,62.6,61.7,29.82,SE,127,11.0,13.0,97,0.00,,---,0.00,0.00,VWS V14.01,2013-01-11 05:18:00,
2013-01-11 00:23:00,62.6,62.0,29.82,ESE,121,7.0,13.0,98,0.00,,---,0.00,0.00,VWS V14.01,2013-01-11 05:23:00,
2013-01-11 00:28:00,62.6,61.7,29.82,SE,134,7.0,8.0,97,0.00,,---,0.00,0.00,VWS V14.01,2013-01-11 05:28:00,
2013-01-11 00:30:00,62.6,61.7,29.82,ESE,113,4.0,13.0,97,0.00,,---,0.00,0.00,VWS V14.01,2013-01-11 05:30:00,
2013-01-11 00:33:00,62.6,61.7,29.82,SE,134,6.0,9.0,97,0.00,,---,0.00,0.00,VWS V14.01,2013-01-11 05:33:00,
2013-01-11 00:38:00,62.7,61.8,29.83,SE,131,2.0,9.0,97,0.00,,---,0.00,0.00,VWS V14.01,2013-01-11 05:38:00,
2013-01-11 00:43:00,62.7,62.1,29.82,SE,144,2.0,9.0,98,0.00,,---,0.00,0.00,VWS V14.01,2013-01-11 05:43:00,
2013-01-11 00:48:00,62.7,62.1,29.82,SE,142,5.0,9.0,98,0.00,,---,0.00,0.00,VWS V14.01,2013-01-11 05:48:00,
2013-01-11 00:53:00,62.7,62.1,29.82,SE,140,5.0,9.0,98,0.00,,---,0.00,0.00,VWS V14.01,2013-01-11 05:53:00,
2013-01-11 00:58:00,62.7,62.1,29.81,SE,130,6.0,9.0,98,0.00,,---,0.00,0.00,VWS V14.01,2013-01-11 05:58:00,
2013-01-11 01:00:00,62.7,62.1,29.81,SE,130,6.0,9.0,98,0.00,,---,0.00,0.00,VWS V14.01,2013-01-11 06:00:00,
2013-01-11 01:03:00,62.7,62.1,29.81,SE,135,11.0,12.0,98,0.00,,---,0.00,0.00,VWS V14.01,2013-01-11 06:03:00,
2013-01-11 01:08:00,62.7,62.1,29.81,SE,131,5.0,12.0,98,0.00,,---,0.00,0.00,VWS V14.01,2013-01-11 06:08:00,
2013-01-11 01:13:00,62.7,62.1,29.81,SE,129,4.0,12.0,98,0.00,,---,0.00,0.00,VWS V14.01,2013-01-11 06:13:00,
2013-01-11 01:18:00,62.7,62.1,29.81,SE,129,5.0,12.0,98,0.00,,---,0.00,0.00,VWS V14.01,2013-01-11 06:18:00,
2013-01-11 01:23:00,62.8,62.2,29.81,SSE,152,7.0,12.0,98,0.00,,---,0.00,0.00,VWS V14.01,2013-01-11 06:23:00,
2013-01-11 01:28:00,62.8,62.2,29.81,SE,138,5.0,9.0,98,0.00,,---,0.00,0.00,VWS V14.01,2013-01-11 06:28:00,
2013-01-11 01:30:00,62.8,62.2,29.81,SE,135,4.0,12.0,98,0.00,,---,0.00,0.00,VWS V14.01,2013-01-11 06:30:00,
2013-01-11 01:33:00,62.9,62.3,29.81,ESE,122,9.0,11.0,98,0.00,,---,0.00,0.00,VWS V14.01,2013-01-11 06:33:00,
2013-01-11 01:38:00,62.9,62.3,29.82,SE,130,4.0,11.0,98,0.00,,---,0.00,0.00,VWS V14.01,2013-01-11 06:38:00,
2013-01-11 01:43:00,63.0,62.4,29.82,SE,130,6.0,11.0,98,0.00,,---,0.00,0.00,VWS V14.01,2013-01-11 06:43:00,
2013-01-11 01:48:00,63.0,62.4,29.81,SE,145,3.0,11.0,98,0.00,,---,0.00,0.00,VWS V14.01,2013-01-11 06:48:00,
2013-01-11 01:53:00,63.0,62.4,29.81,SE,132,7.0,11.0,98,0.00,,---,0.00,0.00,VWS V14.01,2013-01-11 06:53:00,
2013-01-11 01:58:00,63.0,62.4,29.81,ESE,119,7.0,11.0,98,0.00,,---,0.00,0.00,VWS V14.01,2013-01-11 06:58:00,
2013-01-11 02:00:00,63.0,62.4,29.81,SE,125,6.0,11.0,98,0.00,,---,0.00,0.00,VWS V14.01,2013-01-11 07:00:00,
2013-01-11 02:03:00,63.1,62.5,29.80,SE,134,9.0,13.0,98,0.00,,---,0.00,0.00,VWS V14.01,2013-01-11 07:03:00,
2013-01-11 02:08:00,63.1,62.5,29.79,ESE,113,9.0,13.0,98,0.00,,---,0.00,0.00,VWS V14.01,2013-01-11 07:08:00,
2013-01-11 02:13:00,63.1,62.5,29.80,SE,129,5.0,13.0,98,0.00,,---,0.00,0.00,VWS V14.01,2013-01-11 07:13:00,
2013-01-11 02:18:00,63.1,62.5,29.80,SE,130,6.0,13.0,98,0.00,,---,0.00,0.00,VWS V14.01,2013-01-11 07:18:00,
2013-01-11 02:23:00,63.2,62.6,29.79,ESE,121,9.0,13.0,98,0.00,,---,0.00,0.00,VWS V14.01,2013-01-11 07:23:00,
2013-01-11 02:28:00,63.2,62.6,29.79,ESE,116,8.0,10.0,98,0.00,,---,0.00,0.00,VWS V14.01,2013-01-11 07:28:00,
2013-01-11 02:30:00,63.2,62.6,29.79,SE,132,10.0,13.0,98,0.00,,---,0.00,0.00,VWS V14.01,2013-01-11 07:30:00,
2013-01-11 02:33:00,63.1,62.5,29.79,ESE,118,8.0,10.0,98,0.00,,---,0.00,0.00,VWS V14.01,2013-01-11 07:33:00,
2013-01-11 02:38:00,63.1,62.5,29.79,SE,132,11.0,11.0,98,0.00,,---,0.00,0.00,VWS V14.01,2013-01-11 07:38:00,
2013-01-11 02:43:00,63.2,62.6,29.79,ESE,121,7.0,11.0,98,0.00,,---,0.00,0.00,VWS V14.01,2013-01-11 07:43:00,
2013-01-11 02:48:00,63.3,62.7,29.78,ESE,123,8.0,12.0,98,0.00,,---,0.00,0.00,VWS V14.01,2013-01-11 07:48:00,
2013-01-11 02:53:00,63.3,62.7,29.78,ESE,119,8.0,14.0,98,0.00,,---,0.00,0.00,VWS V14.01,2013-01-11 07:53:00,
2013-01-11 02:58:00,63.4,62.8,29.78,ESE,116,9.0,10.0,98,0.00,,---,0.00,0.00,VWS V14.01,2013-01-11 07:58:00,
2013-01-11 03:00:00,63.4,62.8,29.78,SE,131,7.0,15.0,98,0.00,,---,0.00,0.00,VWS V14.01,2013-01-11 08:00:00,
2013-01-11 03:03:00,63.4,62.8,29.77,ESE,121,4.0,11.0,98,0.00,,---,0.00,0.00,VWS V14.01,2013-01-11 08:03:00,
2013-01-11 03:08:00,63.5,62.9,29.77,SE,128,8.0,12.0,98,0.00,,---,0.00,0.00,VWS V14.01,2013-01-11 08:08:00,
2013-01-11 03:13:00,63.6,63.0,29.77,SE,142,9.0,12.0,98,0.00,,---,0.00,0.00,VWS V14.01,2013-01-11 08:13:00,
2013-01-11 03:18:00,63.6,63.0,29.77,SE,143,5.0,13.0,98,0.00,,---,0.00,0.00,VWS V14.01,2013-01-11 08:18:00,
2013-01-11 03:23:00,63.7,63.1,29.77,SE,135,7.0,13.0,98,0.00,,---,0.00,0.00,VWS V14.01,2013-01-11 08:23:00,
2013-01-11 03:28:00,63.8,63.2,29.77,SSE,150,4.0,6.0,98,0.00,,---,0.00,0.00,VWS V14.01,2013-01-11 08:28:00,
2013-01-11 03:30:00,63.8,63.2,29.77,ESE,123,4.0,13.0,98,0.00,,---,0.00,0.00,VWS V14.01,2013-01-11 08:30:00,
2013-01-11 03:33:00,63.9,63.3,29.76,ESE,118,13.0,13.0,98,0.00,,---,0.00,0.00,VWS V14.01,2013-01-11 08:33:00,
2013-01-11 03:38:00,64.0,63.4,29.76,SE,146,8.0,13.0,98,0.00,,---,0.00,0.00,VWS V14.01,2013-01-11 08:38:00,
2013-01-11 03:43:00,64.1,63.5,29.75,SE,139,10.0,15.0,98,0.00,,---,0.00,0.00,VWS V14.01,2013-01-11 08:43:00,
2013-01-11 03:48:00,64.2,63.6,29.75,SE,127,8.0,15.0,98,0.00,,---,0.00,0.00,VWS V14.01,2013-01-11 08:48:00,
2013-01-11 03:53:00,64.2,63.6,29.75,ESE,119,8.0,15.0,98,0.00,,---,0.00,0.00,VWS V14.01,2013-01-11 08:53:00,
2013-01-11 03:58:00,64.3,63.7,29.74,SE,127,11.0,12.0,98,0.00,,---,0.00,0.00,VWS V14.01,2013-01-11 08:58:00,
2013-01-11 04:00:00,64.3,63.7,29.74,SE,134,9.0,15.0,98,0.00,,---,0.00,0.00,VWS V14.01,2013-01-11 09:00:00,
2013-01-11 04:03:00,64.3,63.7,29.74,SE,131,6.0,19.0,98,0.00,,---,0.00,0.00,VWS V14.01,2013-01-11 09:03:00,
2013-01-11 04:08:00,64.4,63.5,29.74,SE,142,1.0,19.0,97,0.00,,---,0.00,0.00,VWS V14.01,2013-01-11 09:08:00,
2013-01-11 04:13:00,64.5,63.6,29.74,SE,135,8.0,19.0,97,0.00,,---,0.00,0.00,VWS V14.01,2013-01-11 09:13:00,
2013-01-11 04:18:00,64.6,63.7,29.74,SE,142,6.0,19.0,97,0.00,,---,0.00,0.00,VWS V14.01,2013-01-11 09:18:00,
2013-01-11 04:23:00,64.7,63.8,29.74,SE,132,13.0,19.0,97,0.00,,---,0.00,0.00,VWS V14.01,2013-01-11 09:23:00,
2013-01-11 04:28:00,64.8,63.9,29.74,SE,134,9.0,9.0,97,0.00,,---,0.00,0.00,VWS V14.01,2013-01-11 09:28:00,
2013-01-11 04:30:00,64.8,63.9,29.74,ESE,118,5.0,19.0,97,0.00,,---,0.00,0.00,VWS V14.01,2013-01-11 09:30:00,
2013-01-11 04:32:00,64.8,63.6,29.74,SSE,149,5.0,16.0,96,0.00,,---,0.00,0.00,VWS V14.01,2013-01-11 09:32:00,
2013-01-11 04:37:00,64.9,63.7,29.73,SSE,153,5.0,16.0,96,0.00,,---,0.00,0.00,VWS V14.01,2013-01-11 09:37:00,
2013-01-11 04:42:00,64.9,63.7,29.73,SSE,161,8.0,16.0,96,0.00,,---,0.00,0.00,VWS V14.01,2013-01-11 09:42:00,
2013-01-11 04:47:00,64.9,63.7,29.73,SE,137,10.0,16.0,96,0.00,,---,0.00,0.00,VWS V14.01,2013-01-11 09:47:00,
2013-01-11 04:52:00,65.0,63.5,29.72,SE,132,10.0,17.0,95,0.00,,---,0.00,0.00,VWS V14.01,2013-01-11 09:52:00,
2013-01-11 04:57:00,65.0,63.5,29.72,SE,140,6.0,6.0,95,0.00,,---,0.00,0.00,VWS V14.01,2013-01-11 09:57:00,
2013-01-11 05:00:00,64.9,63.4,29.72,SE,138,4.0,17.0,95,0.00,,---,0.00,0.00,VWS V14.01,2013-01-11 10:00:00,
2013-01-11 05:02:00,65.0,63.5,29.72,SSE,157,4.0,13.0,95,0.00,,---,0.00,0.00,VWS V14.01,2013-01-11 10:02:00,
2013-01-11 05:07:00,65.0,63.5,29.72,SSE,163,10.0,14.0,95,0.00,,---,0.00,0.00,VWS V14.01,2013-01-11 10:07:00,
2013-01-11 05:12:00,65.1,63.3,29.71,SSE,156,8.0,17.0,94,0.00,,---,0.00,0.00,VWS V14.01,2013-01-11 10:12:00,
2013-01-11 05:17:00,65.2,63.4,29.71,SE,129,4.0,17.0,94,0.00,,---,0.00,0.00,VWS V14.01,2013-01-11 10:17:00,
2013-01-11 05:22:00,65.2,63.4,29.71,South,170,7.0,17.0,94,0.00,,---,0.00,0.00,VWS V14.01,2013-01-11 10:22:00,
2013-01-11 05:27:00,65.2,63.4,29.71,SE,146,9.0,15.0,94,0.00,,---,0.00,0.00,VWS V14.01,2013-01-11 10:27:00,
2013-01-11 05:30:00,65.2,63.1,29.71,SSE,157,7.0,17.0,93,0.00,,---,0.00,0.00,VWS V14.01,2013-01-11 10:30:00,
2013-01-11 05:32:00,65.3,63.2,29.71,SE,142,5.0,15.0,93,0.00,,---,0.00,0.00,VWS V14.01,2013-01-11 10:32:00,
2013-01-11 05:37:00,65.2,63.4,29.72,SSE,167,12.0,15.0,94,0.00,,---,0.00,0.00,VWS V14.01,2013-01-11 10:37:00,
2013-01-11 05:42:00,65.2,63.1,29.72,SSE,152,9.0,15.0,93,0.00,,---,0.00,0.00,VWS V14.01,2013-01-11 10:42:00,
2013-01-11 05:47:00,65.2,63.4,29.72,SSE,161,6.0,17.0,94,0.00,,---,0.00,0.00,VWS V14.01,2013-01-11 10:47:00,
2013-01-11 05:52:00,65.1,63.3,29.73,SW,216,6.0,17.0,94,0.00,,---,0.00,0.00,VWS V14.01,2013-01-11 10:52:00,
2013-01-11 05:57:00,65.1,63.3,29.73,SE,146,6.0,7.0,94,0.00,,---,0.00,0.00,VWS V14.01,2013-01-11 10:57:00,
2013-01-11 06:00:00,65.1,63.3,29.73,ESE,123,7.0,17.0,94,0.00,,---,0.00,0.00,VWS V14.01,2013-01-11 11:00:00,
2013-01-11 06:02:00,65.1,63.3,29.73,SE,138,4.0,11.0,94,0.00,,---,0.00,0.00,VWS V14.01,2013-01-11 11:02:00,
2013-01-11 06:07:00,65.1,63.3,29.73,South,180,4.0,12.0,94,0.00,,---,0.00,0.00,VWS V14.01,2013-01-11 11:07:00,
2013-01-11 06:12:00,65.1,63.3,29.74,SSE,150,2.0,12.0,94,0.00,,---,0.00,0.00,VWS V14.01,2013-01-11 11:12:00,
2013-01-11 06:17:00,65.1,63.3,29.74,SSE,162,3.0,12.0,94,0.00,,---,0.00,0.00,VWS V14.01,2013-01-11 11:17:00,
2013-01-11 06:22:00,65.0,63.2,29.74,SE,142,2.0,12.0,94,0.00,,---,0.00,0.00,VWS V14.01,2013-01-11 11:22:00,
2013-01-11 06:27:00,65.0,63.2,29.74,SSE,147,2.0,3.0,94,0.00,,---,0.00,0.00,VWS V14.01,2013-01-11 11:27:00,
2013-01-11 06:30:00,65.0,63.2,29.74,SSE,147,3.0,12.0,94,0.00,,---,0.00,0.00,VWS V14.01,2013-01-11 11:30:00,
2013-01-11 06:32:00,64.9,63.1,29.74,SSE,159,4.0,7.0,94,0.00,,---,0.00,0.00,VWS V14.01,2013-01-11 11:32:00,
2013-01-11 06:37:00,64.9,63.1,29.74,SSE,153,7.0,8.0,94,0.00,,---,0.00,0.00,VWS V14.01,2013-01-11 11:37:00,
2013-01-11 06:42:00,64.8,63.0,29.74,SE,143,4.0,8.0,94,0.00,,---,0.00,0.00,VWS V14.01,2013-01-11 11:42:00,
2013-01-11 06:47:00,64.7,62.9,29.74,SE,129,6.0,8.0,94,0.00,,---,0.00,0.00,VWS V14.01,2013-01-11 11:47:00,
2013-01-11 06:52:00,64.7,62.9,29.75,South,172,8.0,8.0,94,0.00,,---,0.00,0.00,VWS V14.01,2013-01-11 11:52:00,
2013-01-11 06:57:00,64.7,62.9,29.75,SE,140,3.0,4.0,94,0.00,,---,0.00,0.00,VWS V14.01,2013-01-11 11:57:00,
2013-01-11 07:00:00,64.7,62.9,29.75,SE,134,4.0,9.0,94,0.00,,---,0.00,0.00,VWS V14.01,2013-01-11 12:00:00,
2013-01-11 07:02:00,64.7,62.9,29.75,SSE,154,3.0,11.0,94,0.00,,---,0.00,0.00,VWS V14.01,2013-01-11 12:02:00,
2013-01-11 07:07:00,64.6,62.8,29.75,SSE,153,4.0,11.0,94,0.00,,---,0.00,0.00,VWS V14.01,2013-01-11 12:07:00,
2013-01-11 07:12:00,64.6,62.8,29.75,SSE,165,2.0,11.0,94,0.00,,---,0.00,0.00,VWS V14.01,2013-01-11 12:12:00,
2013-01-11 07:17:00,64.5,62.7,29.75,SSE,157,3.0,11.0,94,0.00,,---,0.00,0.00,VWS V14.01,2013-01-11 12:17:00,
2013-01-11 07:22:00,64.5,62.7,29.75,SE,125,4.0,11.0,94,0.00,,---,0.00,0.00,VWS V14.01,2013-01-11 12:22:00,
2013-01-11 07:27:00,64.5,63.0,29.76,SSE,159,3.0,4.0,95,0.00,,---,0.00,0.00,VWS V14.01,2013-01-11 12:27:00,
2013-01-11 07:30:00,64.5,63.0,29.76,SSE,155,4.0,11.0,95,0.00,,---,0.00,0.00,VWS V14.01,2013-01-11 12:30:00,
2013-01-11 07:32:00,64.4,62.9,29.76,SSE,148,2.0,9.0,95,0.00,,---,0.00,0.00,VWS V14.01,2013-01-11 12:32:00,
2013-01-11 07:37:00,64.4,62.9,29.76,SE,135,2.0,9.0,95,0.00,,---,0.00,0.00,VWS V14.01,2013-01-11 12:37:00,
2013-01-11 07:42:00,64.3,62.8,29.77,SSE,161,3.0,9.0,95,0.00,,---,0.00,5.00,VWS V14.01,2013-01-11 12:42:00,
2013-01-11 07:47:00,64.3,62.8,29.77,SE,139,2.0,9.0,95,0.00,,---,0.00,7.00,VWS V14.01,2013-01-11 12:47:00,
2013-01-11 07:52:00,64.3,62.8,29.77,SE,138,4.0,9.0,95,0.00,,---,0.00,9.00,VWS V14.01,2013-01-11 12:52:00,
2013-01-11 07:57:00,64.3,62.8,29.77,SE,130,3.0,4.0,95,0.00,,---,0.00,11.00,VWS V14.01,2013-01-11 12:57:00,
2013-01-11 08:00:00,64.3,62.8,29.77,SE,130,4.0,9.0,95,0.00,,---,0.00,11.00,VWS V14.01,2013-01-11 13:00:00,
2013-01-11 08:02:00,64.2,62.7,29.77,SSE,158,2.0,6.0,95,0.00,,---,0.00,14.00,VWS V14.01,2013-01-11 13:02:00,
2013-01-11 08:07:00,64.2,62.7,29.78,SE,132,5.0,6.0,95,0.00,,---,0.00,19.00,VWS V14.01,2013-01-11 13:07:00,
2013-01-11 08:12:00,64.2,62.7,29.78,SSE,156,3.0,6.0,95,0.00,,---,0.00,21.00,VWS V14.01,2013-01-11 13:12:00,
2013-01-11 08:17:00,64.2,62.7,29.78,SE,138,3.0,6.0,95,0.00,,---,0.00,18.00,VWS V14.01,2013-01-11 13:17:00,
2013-01-11 08:22:00,64.2,62.7,29.78,SE,136,2.0,6.0,95,0.00,,---,0.00,16.00,VWS V14.01,2013-01-11 13:22:00,
2013-01-11 08:27:00,64.2,62.7,29.78,SE,131,4.0,5.0,95,0.00,,---,0.00,18.00,VWS V14.01,2013-01-11 13:27:00,
2013-01-11 08:30:00,64.2,62.7,29.78,SE,130,5.0,6.0,95,0.00,,---,0.00,18.00,VWS V14.01,2013-01-11 13:30:00,
2013-01-11 08:32:00,64.2,62.7,29.79,ESE,123,4.0,5.0,95,0.00,,---,0.00,21.00,VWS V14.01,2013-01-11 13:32:00,
2013-01-11 08:37:00,64.1,62.6,29.78,SE,131,6.0,7.0,95,0.00,,---,0.00,25.00,VWS V14.01,2013-01-11 13:37:00,
2013-01-11 08:42:00,64.1,62.6,29.78,ESE,123,4.0,7.0,95,0.00,,---,0.00,25.00,VWS V14.01,2013-01-11 13:42:00,
2013-01-11 08:47:00,64.0,62.5,29.78,ESE,115,5.0,7.0,95,0.00,,---,0.00,37.00,VWS V14.01,2013-01-11 13:47:00,
2013-01-11 08:52:00,64.0,62.5,29.78,ESE,120,5.0,7.0,95,0.00,,---,0.00,42.00,VWS V14.01,2013-01-11 13:52:00,
2013-01-11 08:57:00,64.0,62.8,29.79,SE,129,2.0,3.0,96,0.00,,---,0.00,51.00,VWS V14.01,2013-01-11 13:57:00,
2013-01-11 09:00:00,64.0,62.8,29.79,SE,129,3.0,7.0,96,0.00,,---,0.00,51.00,VWS V14.01,2013-01-11 14:00:00,
2013-01-11 09:02:00,64.0,62.8,29.79,SE,138,6.0,6.0,96,0.00,,---,0.00,62.00,VWS V14.01,2013-01-11 14:02:00,
2013-01-11 09:07:00,64.0,62.8,29.78,SSE,148,4.0,7.0,96,0.00,,---,0.00,76.00,VWS V14.01,2013-01-11 14:07:00,
2013-01-11 09:12:00,64.0,62.8,29.79,SE,131,2.0,8.0,96,0.00,,---,0.00,113.00,VWS V14.01,2013-01-11 14:12:00,
2013-01-11 09:17:00,64.1,62.9,29.79,SSE,155,3.0,8.0,96,0.00,,---,0.00,107.00,VWS V14.01,2013-01-11 14:17:00,
2013-01-11 09:22:00,64.3,63.1,29.79,SSE,157,3.0,8.0,96,0.00,,---,0.00,132.00,VWS V14.01,2013-01-11 14:22:00,
2013-01-11 09:27:00,64.4,62.9,29.79,SSE,150,7.0,7.0,95,0.00,,---,0.00,121.00,VWS V14.01,2013-01-11 14:27:00,
2013-01-11 09:30:00,64.4,62.9,29.79,SE,132,5.0,9.0,95,0.00,,---,0.00,121.00,VWS V14.01,2013-01-11 14:30:00,
2013-01-11 09:32:00,64.6,63.1,29.80,SSE,153,6.0,8.0,95,0.00,,---,0.00,100.00,VWS V14.01,2013-01-11 14:32:00,
2013-01-11 09:37:00,64.7,63.2,29.80,SE,142,4.0,10.0,95,0.00,,---,0.00,141.00,VWS V14.01,2013-01-11 14:37:00,
2013-01-11 09:42:00,64.9,63.1,29.80,SSE,147,7.0,10.0,94,0.00,,---,0.00,155.00,VWS V14.01,2013-01-11 14:42:00,
2013-01-11 09:47:00,65.1,63.3,29.80,SSE,150,5.0,10.0,94,0.00,,---,0.00,169.00,VWS V14.01,2013-01-11 14:47:00,
2013-01-11 09:52:00,65.3,63.5,29.80,SE,139,7.0,10.0,94,0.00,,---,0.00,125.00,VWS V14.01,2013-01-11 14:52:00,
2013-01-11 09:57:00,65.4,63.3,29.80,SE,127,4.0,5.0,93,0.00,,---,0.00,109.00,VWS V14.01,2013-01-11 14:57:00,
2013-01-11 10:00:00,65.4,63.3,29.80,SE,133,5.0,10.0,93,0.00,,---,0.00,109.00,VWS V14.01,2013-01-11 15:00:00,
2013-01-11 10:02:00,65.5,63.4,29.80,SSE,148,2.0,6.0,93,0.00,,---,0.00,179.00,VWS V14.01,2013-01-11 15:02:00,
2013-01-11 10:07:00,65.6,63.2,29.80,South,171,6.0,7.0,92,0.00,,---,0.00,176.00,VWS V14.01,2013-01-11 15:07:00,
2013-01-11 10:12:00,65.9,63.5,29.80,SE,138,8.0,8.0,92,0.00,,---,0.00,139.00,VWS V14.01,2013-01-11 15:12:00,
2013-01-11 10:17:00,66.0,63.6,29.80,SSE,157,5.0,8.0,92,0.00,,---,0.00,213.00,VWS V14.01,2013-01-11 15:17:00,
2013-01-11 10:22:00,66.1,63.4,29.80,SSW,193,5.0,9.0,91,0.00,,---,0.00,167.00,VWS V14.01,2013-01-11 15:22:00,
2013-01-11 10:27:00,66.3,63.6,29.80,SSW,204,5.0,5.0,91,0.00,,---,0.00,104.00,VWS V14.01,2013-01-11 15:27:00,
2013-01-11 10:30:00,66.3,63.6,29.80,SSW,206,4.0,9.0,91,0.00,,---,0.00,104.00,VWS V14.01,2013-01-11 15:30:00,
2013-01-11 10:32:00,66.2,63.5,29.80,SW,222,7.0,10.0,91,0.00,,---,0.00,79.00,VWS V14.01,2013-01-11 15:32:00,
2013-01-11 10:37:00,66.1,63.4,29.80,SSE,158,8.0,11.0,91,0.00,,---,0.00,107.00,VWS V14.01,2013-01-11 15:37:00,
2013-01-11 10:42:00,66.3,63.6,29.80,South,188,8.0,11.0,91,0.00,,---,0.00,171.00,VWS V14.01,2013-01-11 15:42:00,
2013-01-11 10:47:00,66.4,63.7,29.80,South,185,4.0,11.0,91,0.00,,---,0.00,178.00,VWS V14.01,2013-01-11 15:47:00,
2013-01-11 10:52:00,66.5,63.8,29.80,SSW,197,6.0,11.0,91,0.00,,---,0.00,209.00,VWS V14.01,2013-01-11 15:52:00,
2013-01-11 10:57:00,66.8,63.8,29.79,SSW,200,9.0,9.0,90,0.00,,---,0.00,320.00,VWS V14.01,2013-01-11 15:57:00,
2013-01-11 11:00:00,66.8,63.8,29.80,SSW,196,9.0,11.0,90,0.00,,---,0.00,320.00,VWS V14.01,2013-01-11 16:00:00,
2013-01-11 11:02:00,67.2,64.2,29.79,South,171,3.0,9.0,90,0.00,,---,0.00,186.00,VWS V14.01,2013-01-11 16:02:00,
2013-01-11 11:07:00,67.3,64.0,29.79,South,186,5.0,9.0,89,0.00,,---,0.00,188.00,VWS V14.01,2013-01-11 16:07:00,
2013-01-11 11:12:00,67.4,64.1,29.79,South,169,5.0,11.0,89,0.00,,---,0.00,123.00,VWS V14.01,2013-01-11 16:12:00,
2013-01-11 11:17:00,67.3,63.6,29.79,SSW,204,8.0,11.0,88,0.00,,---,0.00,127.00,VWS V14.01,2013-01-11 16:17:00,
2013-01-11 11:22:00,67.4,63.7,29.79,South,178,6.0,11.0,88,0.00,,---,0.00,83.00,VWS V14.01,2013-01-11 16:22:00,
2013-01-11 11:27:00,67.5,63.8,29.78,South,190,7.0,11.0,88,0.00,,---,0.00,95.00,VWS V14.01,2013-01-11 16:27:00,
2013-01-11 11:30:00,67.5,63.8,29.78,South,190,7.0,11.0,88,0.00,,---,0.00,95.00,VWS V14.01,2013-01-11 16:30:00,
2013-01-11 11:32:00,67.6,63.9,29.78,South,181,5.0,8.0,88,0.00,,---,0.00,102.00,VWS V14.01,2013-01-11 16:32:00,
2013-01-11 11:37:00,67.6,63.9,29.78,South,187,4.0,8.0,88,0.00,,---,0.00,102.00,VWS V14.01,2013-01-11 16:37:00,
2013-01-11 11:42:00,67.6,63.6,29.78,SSW,198,7.0,11.0,87,0.00,,---,0.00,113.00,VWS V14.01,2013-01-11 16:42:00,
2013-01-11 11:47:00,67.6,63.6,29.78,SW,217,5.0,11.0,87,0.00,,---,0.00,120.00,VWS V14.01,2013-01-11 16:47:00,
2013-01-11 11:52:00,67.7,64.0,29.77,SSE,159,5.0,11.0,88,0.00,,---,0.00,134.00,VWS V14.01,2013-01-11 16:52:00,
2013-01-11 11:57:00,67.7,63.7,29.77,South,171,9.0,11.0,87,0.00,,---,0.00,121.00,VWS V14.01,2013-01-11 16:57:00,
2013-01-11 12:00:00,67.7,63.7,29.77,South,182,7.0,11.0,87,0.00,,---,0.00,113.00,VWS V14.01,2013-01-11 17:00:00,
2013-01-11 12:02:00,67.7,63.7,29.77,SW,214,5.0,9.0,87,0.00,,---,0.00,111.00,VWS V14.01,2013-01-11 17:02:00,
2013-01-11 12:07:00,67.7,63.7,29.77,South,169,6.0,10.0,87,0.00,,---,0.00,109.00,VWS V14.01,2013-01-11 17:07:00,
2013-01-11 12:12:00,67.7,63.7,29.76,SSE,168,8.0,12.0,87,0.00,,---,0.00,127.00,VWS V14.01,2013-01-11 17:12:00,
2013-01-11 12:17:00,67.7,64.0,29.76,SSW,207,7.0,12.0,88,0.00,,---,0.00,153.00,VWS V14.01,2013-01-11 17:17:00,
2013-01-11 12:22:00,67.9,64.2,29.76,South,184,2.0,12.0,88,0.00,,---,0.00,169.00,VWS V14.01,2013-01-11 17:22:00,
2013-01-11 12:27:00,68.0,64.3,29.76,South,174,6.0,12.0,88,0.00,,---,0.00,183.00,VWS V14.01,2013-01-11 17:27:00,
2013-01-11 12:30:00,68.0,64.3,29.76,SSW,196,6.0,12.0,88,0.00,,---,0.00,183.00,VWS V14.01,2013-01-11 17:30:00,
2013-01-11 12:32:00,68.1,64.4,29.76,SSE,155,4.0,8.0,88,0.00,,---,0.00,234.00,VWS V14.01,2013-01-11 17:32:00,
2013-01-11 12:37:00,68.4,64.4,29.75,SSW,209,3.0,8.0,87,0.00,,---,0.00,207.00,VWS V14.01,2013-01-11 17:37:00,
2013-01-11 12:42:00,68.7,64.7,29.75,South,173,7.0,8.0,87,0.00,,---,0.00,269.00,VWS V14.01,2013-01-11 17:42:00,
2013-01-11 12:47:00,68.5,64.2,29.75,South,179,6.0,8.0,86,0.00,,---,0.00,193.00,VWS V14.01,2013-01-11 17:47:00,
2013-01-11 12:52:00,68.6,64.6,29.74,South,175,4.0,9.0,87,0.00,,---,0.00,158.00,VWS V14.01,2013-01-11 17:52:00,
2013-01-11 12:57:00,68.9,64.9,29.74,SSE,166,5.0,9.0,87,0.00,,---,0.00,216.00,VWS V14.01,2013-01-11 17:57:00,
2013-01-11 13:00:00,68.8,64.8,29.74,South,169,8.0,9.0,87,0.00,,---,0.00,216.00,VWS V14.01,2013-01-11 18:00:00,
2013-01-11 13:02:00,69.4,65.0,29.74,South,176,9.0,10.0,86,0.00,,---,0.00,276.00,VWS V14.01,2013-01-11 18:02:00,
2013-01-11 13:07:00,69.6,64.9,29.74,SW,226,5.0,10.0,85,0.00,,---,0.00,485.00,VWS V14.01,2013-01-11 18:07:00,
2013-01-11 13:12:00,70.4,65.0,29.74,South,178,11.0,11.0,83,0.00,,---,0.00,315.00,VWS V14.01,2013-01-11 18:12:00,
2013-01-11 13:17:00,70.6,65.2,29.73,South,172,6.0,13.0,83,0.00,,---,0.00,192.00,VWS V14.01,2013-01-11 18:17:00,
2013-01-11 13:22:00,70.9,65.1,29.73,SSE,149,6.0,13.0,82,0.00,,---,0.00,142.00,VWS V14.01,2013-01-11 18:22:00,
2013-01-11 13:27:00,70.5,65.1,29.72,South,175,9.0,13.0,83,0.00,,---,0.00,244.00,VWS V14.01,2013-01-11 18:27:00,
2013-01-11 13:30:00,70.5,65.1,29.72,SSE,167,7.0,13.0,83,0.00,,---,0.00,244.00,VWS V14.01,2013-01-11 18:30:00,
2013-01-11 13:32:00,70.8,65.0,29.72,South,180,5.0,11.0,82,0.00,,---,0.00,292.00,VWS V14.01,2013-01-11 18:32:00,
2013-01-11 13:37:00,71.0,64.9,29.72,SSW,202,7.0,11.0,81,0.00,,---,0.00,515.00,VWS V14.01,2013-01-11 18:37:00,
2013-01-11 13:42:00,71.3,64.8,29.72,South,184,5.0,13.0,80,0.00,,---,0.00,216.00,VWS V14.01,2013-01-11 18:42:00,
2013-01-11 13:47:00,71.2,64.7,29.72,SSE,148,4.0,13.0,80,0.00,,---,0.00,188.00,VWS V14.01,2013-01-11 18:47:00,
2013-01-11 13:52:00,71.2,64.7,29.71,South,177,5.0,13.0,80,0.00,,---,0.00,107.00,VWS V14.01,2013-01-11 18:52:00,
2013-01-11 13:57:00,71.2,65.1,29.72,South,191,8.0,13.0,81,0.00,,---,0.00,104.00,VWS V14.01,2013-01-11 18:57:00,
2013-01-11 14:00:00,71.2,65.1,29.72,SSW,198,2.0,13.0,81,0.00,,---,0.00,104.00,VWS V14.01,2013-01-11 19:00:00,
2013-01-11 14:01:00,71.2,64.7,29.72,SSW,196,7.0,12.0,80,0.00,,---,0.00,91.00,VWS V14.01,2013-01-11 19:01:00,
2013-01-11 14:06:00,71.2,64.7,29.71,South,169,3.0,14.0,80,0.00,,---,0.00,169.00,VWS V14.01,2013-01-11 19:06:00,
2013-01-11 14:11:00,71.4,64.6,29.72,South,178,2.0,14.0,79,0.00,,---,0.00,156.00,VWS V14.01,2013-01-11 19:11:00,
2013-01-11 14:16:00,71.7,65.2,29.71,South,182,3.0,14.0,80,0.00,,---,0.00,151.00,VWS V14.01,2013-01-11 19:16:00,
2013-01-11 14:21:00,71.7,64.5,29.71,SSE,164,8.0,14.0,78,0.00,,---,0.00,151.00,VWS V14.01,2013-01-11 19:21:00,
2013-01-11 14:26:00,71.7,64.8,29.71,SSE,164,8.0,14.0,79,0.00,,---,0.00,114.00,VWS V14.01,2013-01-11 19:26:00,
2013-01-11 14:30:00,71.7,64.5,29.71,SE,138,8.0,14.0,78,0.00,,---,0.00,114.00,VWS V14.01,2013-01-11 19:30:00,
2013-01-11 14:31:00,71.8,64.6,29.71,SSW,198,13.0,15.0,78,0.00,,---,0.00,76.00,VWS V14.01,2013-01-11 19:31:00,
2013-01-11 14:36:00,71.9,64.7,29.71,SW,229,9.0,15.0,78,0.00,,---,0.00,128.00,VWS V14.01,2013-01-11 19:36:00,
2013-01-11 14:41:00,72.0,64.8,29.71,SW,217,5.0,15.0,78,0.00,,---,0.00,105.00,VWS V14.01,2013-01-11 19:41:00,
2013-01-11 14:46:00,72.0,64.8,29.71,South,187,3.0,15.0,78,0.00,,---,0.00,172.00,VWS V14.01,2013-01-11 19:46:00,
2013-01-11 14:51:00,72.1,64.9,29.71,SSE,168,3.0,15.0,78,0.00,,---,0.00,100.00,VWS V14.01,2013-01-11 19:51:00,
2013-01-11 14:56:00,72.2,64.6,29.71,South,182,13.0,15.0,77,0.00,,---,0.00,91.00,VWS V14.01,2013-01-11 19:56:00,
2013-01-11 15:00:00,72.2,64.6,29.71,SSW,205,9.0,15.0,77,0.00,,---,0.00,91.00,VWS V14.01,2013-01-11 20:00:00,
2013-01-11 15:01:00,72.3,64.7,29.71,SSW,211,8.0,14.0,77,0.00,,---,0.00,113.00,VWS V14.01,2013-01-11 20:01:00,
2013-01-11 15:06:00,72.3,64.7,29.71,SSW,206,9.0,14.0,77,0.00,,---,0.00,90.00,VWS V14.01,2013-01-11 20:06:00,
2013-01-11 15:11:00,72.4,64.8,29.71,South,178,8.0,14.0,77,0.00,,---,0.00,69.00,VWS V14.01,2013-01-11 20:11:00,
2013-01-11 15:16:00,72.4,64.8,29.71,SSW,196,6.0,14.0,77,0.00,,---,0.00,69.00,VWS V14.01,2013-01-11 20:16:00,
2013-01-11 15:21:00,72.4,64.8,29.71,South,169,10.0,14.0,77,0.00,,---,0.00,65.00,VWS V14.01,2013-01-11 20:21:00,
2013-01-11 15:26:00,72.4,64.4,29.71,South,175,6.0,14.0,76,0.00,,---,0.00,76.00,VWS V14.01,2013-01-11 20:26:00,
2013-01-11 15:30:00,72.5,64.5,29.71,South,173,6.0,14.0,76,0.00,,---,0.00,76.00,VWS V14.01,2013-01-11 20:30:00,
2013-01-11 15:31:00,72.5,64.5,29.71,SSE,160,6.0,12.0,76,0.00,,---,0.00,104.00,VWS V14.01,2013-01-11 20:31:00,
2013-01-11 15:36:00,72.4,64.4,29.71,SSE,159,5.0,15.0,76,0.00,,---,0.00,114.00,VWS V14.01,2013-01-11 20:36:00,
2013-01-11 15:41:00,72.5,64.5,29.70,SSE,162,8.0,15.0,76,0.00,,---,0.00,146.00,VWS V14.01,2013-01-11 20:41:00,
2013-01-11 15:46:00,72.5,64.5,29.70,South,176,5.0,15.0,76,0.00,,---,0.00,114.00,VWS V14.01,2013-01-11 20:46:00,
2013-01-11 15:51:00,72.6,64.2,29.71,South,173,9.0,15.0,75,0.00,,---,0.00,88.00,VWS V14.01,2013-01-11 20:51:00,
2013-01-11 15:56:00,72.5,64.1,29.71,South,182,8.0,15.0,75,0.00,,---,0.00,74.00,VWS V14.01,2013-01-11 20:56:00,
2013-01-11 16:00:00,72.5,64.1,29.71,SSW,212,9.0,15.0,75,0.00,,---,0.00,72.00,VWS V14.01,2013-01-11 21:00:00,
2013-01-11 16:01:00,72.4,64.0,29.71,South,171,11.0,15.0,75,0.00,,---,0.00,63.00,VWS V14.01,2013-01-11 21:01:00,
2013-01-11 16:06:00,72.3,63.9,29.71,SSW,209,8.0,18.0,75,0.00,,---,0.00,53.00,VWS V14.01,2013-01-11 21:06:00,
2013-01-11 16:11:00,72.2,63.8,29.70,South,176,7.0,18.0,75,0.00,,---,0.00,60.00,VWS V14.01,2013-01-11 21:11:00,
2013-01-11 16:16:00,72.2,63.8,29.71,South,185,5.0,18.0,75,0.00,,---,0.00,63.00,VWS V14.01,2013-01-11 21:16:00,
2013-01-11 16:21:00,72.2,64.2,29.70,South,184,5.0,18.0,76,0.00,,---,0.00,65.00,VWS V14.01,2013-01-11 21:21:00,
2013-01-11 16:26:00,72.2,64.2,29.70,SSW,193,6.0,18.0,76,0.00,,---,0.00,51.00,VWS V14.01,2013-01-11 21:26:00,
2013-01-11 16:30:00,72.2,64.2,29.70,SSE,165,6.0,18.0,76,0.00,,---,0.00,49.00,VWS V14.01,2013-01-11 21:30:00,
2013-01-11 16:31:00,72.1,64.1,29.70,SSW,195,9.0,10.0,76,0.00,,---,0.00,60.00,VWS V14.01,2013-01-11 21:31:00,
2013-01-11 16:36:00,72.2,64.2,29.70,South,178,4.0,16.0,76,0.00,,---,0.00,56.00,VWS V14.01,2013-01-11 21:36:00,
2013-01-11 16:41:00,72.1,64.1,29.70,South,177,4.0,16.0,76,0.00,,---,0.00,49.00,VWS V14.01,2013-01-11 21:41:00,
2013-01-11 16:46:00,72.1,64.1,29.70,SSW,205,6.0,16.0,76,0.00,,---,0.00,54.00,VWS V14.01,2013-01-11 21:46:00,
2013-01-11 16:51:00,72.1,64.1,29.70,SSW,203,5.0,16.0,76,0.00,,---,0.00,51.00,VWS V14.01,2013-01-11 21:51:00,
2013-01-11 16:56:00,72.1,63.8,29.70,SSW,200,7.0,17.0,75,0.00,,---,0.00,40.00,VWS V14.01,2013-01-11 21:56:00,
2013-01-11 17:00:00,72.1,63.8,29.70,SSE,158,7.0,17.0,75,0.00,,---,0.00,39.00,VWS V14.01,2013-01-11 22:00:00,
2013-01-11 17:01:00,72.2,63.5,29.70,SSW,196,7.0,12.0,74,0.00,,---,0.00,33.00,VWS V14.01,2013-01-11 22:01:00,
2013-01-11 17:06:00,72.1,63.8,29.70,SSE,168,3.0,12.0,75,0.00,,---,0.00,32.00,VWS V14.01,2013-01-11 22:06:00,
2013-01-11 17:11:00,72.0,63.7,29.70,South,172,3.0,12.0,75,0.00,,---,0.00,26.00,VWS V14.01,2013-01-11 22:11:00,
2013-01-11 17:16:00,72.0,63.7,29.70,SSW,200,6.0,12.0,75,0.00,,---,0.00,18.00,VWS V14.01,2013-01-11 22:16:00,
2013-01-11 17:21:00,71.9,63.5,29.70,SE,140,5.0,12.0,75,0.00,,---,0.00,14.00,VWS V14.01,2013-01-11 22:21:00,
2013-01-11 17:26:00,71.9,63.5,29.70,South,186,4.0,12.0,75,0.00,,---,0.00,11.00,VWS V14.01,2013-01-11 22:26:00,
2013-01-11 17:30:00,71.9,63.5,29.70,SSE,166,4.0,12.0,75,0.00,,---,0.00,9.00,VWS V14.01,2013-01-11 22:30:00,
2013-01-11 17:31:00,71.9,63.5,29.70,South,179,4.0,8.0,75,0.00,,---,0.00,9.00,VWS V14.01,2013-01-11 22:31:00,
2013-01-11 17:36:00,71.8,63.5,29.71,SSW,206,4.0,8.0,75,0.00,,---,0.00,9.00,VWS V14.01,2013-01-11 22:36:00,
2013-01-11 17:41:00,71.8,63.5,29.70,South,171,3.0,8.0,75,0.00,,---,0.00,7.00,VWS V14.01,2013-01-11 22:41:00,
2013-01-11 17:46:00,71.7,63.7,29.70,South,171,3.0,8.0,76,0.00,,---,0.00,0.00,VWS V14.01,2013-01-11 22:46:00,
2013-01-11 17:51:00,71.6,63.6,29.70,SSE,158,5.0,11.0,76,0.00,,---,0.00,0.00,VWS V14.01,2013-01-11 22:51:00,
2013-01-11 17:56:00,71.6,63.6,29.71,SSW,200,4.0,11.0,76,0.00,,---,0.00,0.00,VWS V14.01,2013-01-11 22:56:00,
2013-01-11 18:00:00,71.5,63.5,29.71,SSE,163,3.0,11.0,76,0.00,,---,0.00,0.00,VWS V14.01,2013-01-11 23:00:00,
2013-01-11 18:01:00,71.4,63.5,29.71,SSE,165,7.0,7.0,76,0.00,,---,0.00,0.00,VWS V14.01,2013-01-11 23:01:00,
2013-01-11 18:06:00,71.2,63.3,29.71,South,170,2.0,8.0,76,0.00,,---,0.00,0.00,VWS V14.01,2013-01-11 23:06:00,
2013-01-11 18:11:00,71.2,63.6,29.71,SSW,196,4.0,8.0,77,0.00,,---,0.00,0.00,VWS V14.01,2013-01-11 23:11:00,
2013-01-11 18:16:00,71.1,63.5,29.71,South,171,5.0,8.0,77,0.00,,---,0.00,0.00,VWS V14.01,2013-01-11 23:16:00,
2013-01-11 18:21:00,71.0,63.4,29.71,South,173,3.0,8.0,77,0.00,,---,0.00,0.00,VWS V14.01,2013-01-11 23:21:00,
2013-01-11 18:26:00,70.8,63.2,29.71,South,183,4.0,8.0,77,0.00,,---,0.00,0.00,VWS V14.01,2013-01-11 23:26:00,
2013-01-11 18:30:00,70.8,63.6,29.71,South,173,3.0,8.0,78,0.00,,---,0.00,0.00,VWS V14.01,2013-01-11 23:30:00,
2013-01-11 18:31:00,70.6,63.4,29.71,SSE,167,3.0,5.0,78,0.00,,---,0.00,0.00,VWS V14.01,2013-01-11 23:31:00,
2013-01-11 18:36:00,70.5,63.3,29.71,South,180,2.0,6.0,78,0.00,,---,0.00,0.00,VWS V14.01,2013-01-11 23:36:00,
2013-01-11 18:41:00,70.3,63.5,29.71,South,179,4.0,6.0,79,0.00,,---,0.00,0.00,VWS V14.01,2013-01-11 23:41:00,
2013-01-11 18:46:00,70.3,63.5,29.71,SSW,193,6.0,7.0,79,0.00,,---,0.00,0.00,VWS V14.01,2013-01-11 23:46:00,
2013-01-11 18:51:00,70.1,63.3,29.71,South,178,3.0,7.0,79,0.00,,---,0.00,0.00,VWS V14.01,2013-01-11 23:51:00,
2013-01-11 18:56:00,69.9,63.1,29.71,SSE,162,3.0,8.0,79,0.00,,---,0.00,0.00,VWS V14.01,2013-01-11 23:56:00,
2013-01-11 19:00:00,69.9,63.1,29.71,South,169,3.0,8.0,79,0.00,,---,0.00,0.00,VWS V14.01,2013-01-12 00:00:00,
2013-01-11 19:01:00,69.8,63.4,29.71,SSE,165,3.0,7.0,80,0.00,,---,0.00,0.00,VWS V14.01,2013-01-12 00:01:00,
2013-01-11 19:06:00,69.6,63.2,29.70,SSE,163,5.0,8.0,80,0.00,,---,0.00,0.00,VWS V14.01,2013-01-12 00:06:00,
2013-01-11 19:11:00,69.6,63.2,29.70,SSE,157,3.0,8.0,80,0.00,,---,0.00,0.00,VWS V14.01,2013-01-12 00:11:00,
2013-01-11 19:16:00,69.5,63.1,29.70,SSE,163,3.0,8.0,80,0.00,,---,0.00,0.00,VWS V14.01,2013-01-12 00:16:00,
2013-01-11 19:21:00,69.4,63.3,29.71,South,169,2.0,8.0,81,0.00,,---,0.00,0.00,VWS V14.01,2013-01-12 00:21:00,
2013-01-11 19:26:00,69.3,63.2,29.70,SE,143,5.0,8.0,81,0.00,,---,0.00,0.00,VWS V14.01,2013-01-12 00:26:00,
2013-01-11 19:30:00,69.3,63.2,29.70,SSE,155,3.0,8.0,81,0.00,,---,0.00,0.00,VWS V14.01,2013-01-12 00:30:00,
2013-01-11 19:31:00,69.2,63.1,29.70,SSE,153,5.0,7.0,81,0.00,,---,0.00,0.00,VWS V14.01,2013-01-12 00:31:00,
2013-01-11 19:36:00,69.2,63.1,29.70,SSE,166,7.0,8.0,81,0.00,,---,0.00,0.00,VWS V14.01,2013-01-12 00:36:00,
2013-01-11 19:41:00,69.1,63.0,29.70,SSE,165,3.0,8.0,81,0.00,,---,0.00,0.00,VWS V14.01,2013-01-12 00:41:00,
2013-01-11 19:46:00,69.2,63.5,29.71,South,184,5.0,9.0,82,0.00,,---,0.00,0.00,VWS V14.01,2013-01-12 00:46:00,
2013-01-11 19:51:00,69.2,63.5,29.71,SSW,202,5.0,9.0,82,0.00,,---,0.00,0.00,VWS V14.01,2013-01-12 00:51:00,
2013-01-11 19:56:00,69.3,63.6,29.71,South,171,2.0,9.0,82,0.00,,---,0.00,0.00,VWS V14.01,2013-01-12 00:56:00,
2013-01-11 20:00:00,69.2,63.5,29.71,South,173,5.0,9.0,82,0.00,,---,0.00,0.00,VWS V14.01,2013-01-12 01:00:00,
2013-01-11 20:01:00,69.2,63.5,29.71,South,184,5.0,10.0,82,0.00,,---,0.00,0.00,VWS V14.01,2013-01-12 01:01:00,
2013-01-11 20:06:00,69.0,63.3,29.71,South,173,2.0,10.0,82,0.00,,---,0.00,0.00,VWS V14.01,2013-01-12 01:06:00,
2013-01-11 20:11:00,68.8,63.1,29.71,SE,144,6.0,10.0,82,0.00,,---,0.00,0.00,VWS V14.01,2013-01-12 01:11:00,
2013-01-11 20:16:00,68.7,63.3,29.71,SSE,161,3.0,10.0,83,0.00,,---,0.00,0.00,VWS V14.01,2013-01-12 01:16:00,
2013-01-11 20:21:00,68.6,63.2,29.72,SSE,160,4.0,10.0,83,0.00,,---,0.00,0.00,VWS V14.01,2013-01-12 01:21:00,
2013-01-11 20:26:00,68.5,63.1,29.71,SSE,163,5.0,10.0,83,0.00,,---,0.00,0.00,VWS V14.01,2013-01-12 01:26:00,
2013-01-11 20:30:00,68.5,63.5,29.71,SSE,167,6.0,10.0,84,0.00,,---,0.00,0.00,VWS V14.01,2013-01-12 01:30:00,
2013-01-11 20:31:00,68.4,63.4,29.72,South,186,5.0,7.0,84,0.00,,---,0.00,0.00,VWS V14.01,2013-01-12 01:31:00,
2013-01-11 20:36:00,68.3,63.3,29.72,South,171,6.0,7.0,84,0.00,,---,0.00,0.00,VWS V14.01,2013-01-12 01:36:00,
2013-01-11 20:41:00,68.1,63.1,29.72,SSE,165,4.0,7.0,84,0.00,,---,0.00,0.00,VWS V14.01,2013-01-12 01:41:00,
2013-01-11 20:46:00,68.1,63.4,29.72,South,175,2.0,7.0,85,0.00,,---,0.00,0.00,VWS V14.01,2013-01-12 01:46:00,
2013-01-11 20:50:00,68.0,63.3,29.72,South,174,8.0,8.0,85,0.00,,---,0.00,0.00,VWS V14.01,2013-01-12 01:50:00,
2013-01-11 20:55:00,68.0,63.3,29.72,SSE,165,3.0,8.0,85,0.00,,---,0.00,0.00,VWS V14.01,2013-01-12 01:55:00,
2013-01-11 21:00:00,67.9,63.2,29.72,SSE,155,4.0,8.0,85,0.00,,---,0.00,0.00,VWS V14.01,2013-01-12 02:00:00,
2013-01-11 21:06:00,67.9,63.2,29.72,South,191,6.0,8.0,85,0.00,,---,0.00,0.00,VWS V14.01,2013-01-12 02:06:00,
2013-01-11 21:10:00,67.9,63.2,29.72,SSW,204,3.0,9.0,85,0.00,,---,0.00,0.00,VWS V14.01,2013-01-12 02:10:00,
2013-01-11 21:15:00,67.8,63.1,29.72,South,184,4.0,9.0,85,0.00,,---,0.00,0.00,VWS V14.01,2013-01-12 02:15:00,
2013-01-11 21:20:00,67.7,63.0,29.73,South,178,2.0,9.0,85,0.00,,---,0.00,0.00,VWS V14.01,2013-01-12 02:20:00,
2013-01-11 21:25:00,67.6,62.9,29.72,SSE,164,4.0,9.0,85,0.00,,---,0.00,0.00,VWS V14.01,2013-01-12 02:25:00,
2013-01-11 21:30:00,67.5,62.8,29.73,SSE,151,3.0,6.0,85,0.00,,---,0.00,0.00,VWS V14.01,2013-01-12 02:30:00,
2013-01-11 21:35:00,67.5,62.8,29.73,South,178,2.0,6.0,85,0.00,,---,0.00,0.00,VWS V14.01,2013-01-12 02:35:00,
2013-01-11 21:40:00,67.5,62.8,29.73,South,184,4.0,6.0,85,0.00,,---,0.00,0.00,VWS V14.01,2013-01-12 02:40:00,
2013-01-11 21:45:00,67.4,62.7,29.73,South,189,2.0,6.0,85,0.00,,---,0.00,0.00,VWS V14.01,2013-01-12 02:45:00,
2013-01-11 21:50:00,67.4,62.7,29.73,SSW,198,2.0,6.0,85,0.00,,---,0.00,0.00,VWS V14.01,2013-01-12 02:50:00,
2013-01-11 21:55:00,67.3,62.6,29.73,South,191,2.0,6.0,85,0.00,,---,0.00,0.00,VWS V14.01,2013-01-12 02:55:00,
2013-01-11 22:00:00,67.2,62.5,29.73,South,190,1.0,3.0,85,0.00,,---,0.00,0.00,VWS V14.01,2013-01-12 03:00:00,
2013-01-11 22:05:00,67.0,62.3,29.73,South,185,3.0,3.0,85,0.00,,---,0.00,0.00,VWS V14.01,2013-01-12 03:05:00,
2013-01-11 22:10:00,66.8,62.5,29.73,South,185,2.0,3.0,86,0.00,,---,0.00,0.00,VWS V14.01,2013-01-12 03:10:00,
2013-01-11 22:15:00,66.7,62.4,29.73,South,179,2.0,3.0,86,0.00,,---,0.00,0.00,VWS V14.01,2013-01-12 03:15:00,
2013-01-11 22:20:00,66.5,62.2,29.73,South,173,3.0,4.0,86,0.00,,---,0.00,0.00,VWS V14.01,2013-01-12 03:20:00,
2013-01-11 22:25:00,66.5,62.2,29.73,SSE,167,3.0,5.0,86,0.00,,---,0.00,0.00,VWS V14.01,2013-01-12 03:25:00,
2013-01-11 22:30:00,66.3,62.3,29.73,SSE,168,3.0,5.0,87,0.00,,---,0.00,0.00,VWS V14.01,2013-01-12 03:30:00,
2013-01-11 22:35:00,66.2,62.2,29.73,South,178,3.0,5.0,87,0.00,,---,0.00,0.00,VWS V14.01,2013-01-12 03:35:00,
2013-01-11 22:40:00,66.1,62.1,29.73,South,188,2.0,5.0,87,0.00,,---,0.00,0.00,VWS V14.01,2013-01-12 03:40:00,
2013-01-11 22:45:00,66.1,62.1,29.73,South,179,2.0,5.0,87,0.00,,---,0.00,0.00,VWS V14.01,2013-01-12 03:45:00,
2013-01-11 22:50:00,66.1,62.1,29.73,South,182,4.0,5.0,87,0.00,,---,0.00,0.00,VWS V14.01,2013-01-12 03:50:00,
2013-01-11 22:55:00,66.1,61.8,29.73,South,173,2.0,6.0,86,0.00,,---,0.00,0.00,VWS V14.01,2013-01-12 03:55:00,
2013-01-11 23:00:00,65.9,61.9,29.72,SSE,167,4.0,5.0,87,0.00,,---,0.00,0.00,VWS V14.01,2013-01-12 04:00:00,
2013-01-11 23:05:00,65.8,61.8,29.73,SSE,166,1.0,5.0,87,0.00,,---,0.00,0.00,VWS V14.01,2013-01-12 04:05:00,
2013-01-11 23:10:00,65.6,61.6,29.73,South,174,5.0,5.0,87,0.00,,---,0.00,0.00,VWS V14.01,2013-01-12 04:10:00,
2013-01-11 23:15:00,65.6,61.6,29.73,South,182,3.0,5.0,87,0.00,,---,0.00,0.00,VWS V14.01,2013-01-12 04:15:00,
2013-01-11 23:20:00,65.6,61.6,29.72,SSE,167,5.0,6.0,87,0.00,,---,0.00,0.00,VWS V14.01,2013-01-12 04:20:00,
2013-01-11 23:25:00,65.6,61.6,29.72,South,182,6.0,7.0,87,0.00,,---,0.00,0.00,VWS V14.01,2013-01-12 04:25:00,
2013-01-11 23:30:00,65.6,61.6,29.72,SSE,164,2.0,5.0,87,0.00,,---,0.00,0.00,VWS V14.01,2013-01-12 04:30:00,
2013-01-11 23:35:00,65.5,61.5,29.72,SSE,163,2.0,5.0,87,0.00,,---,0.00,0.00,VWS V14.01,2013-01-12 04:35:00,
2013-01-11 23:40:00,65.5,61.5,29.72,South,186,4.0,7.0,87,0.00,,---,0.00,0.00,VWS V14.01,2013-01-12 04:40:00,
2013-01-11 23:45:00,65.6,61.3,29.72,South,191,5.0,8.0,86,0.00,,---,0.00,0.00,VWS V14.01,2013-01-12 04:45:00,
2013-01-11 23:50:00,65.7,61.4,29.72,South,188,4.0,8.0,86,0.00,,---,0.00,0.00,VWS V14.01,2013-01-12 04:50:00,
2013-01-11 23:55:00,65.7,61.4,29.72,South,188,5.0,8.0,86,0.00,,---,0.00,0.00,VWS V14.01,2013-01-12 04:55:00,